Location: Zengebe
(1.4833°N, 32.5167°E)
Time: 23:21:32
(UTC+00:00)

Delta 168 - Pass Details

Date: 07 June 2020
Orbit: 394 x 2051 km, 25.3° (Epoch: 10 July)

Event Time Altitude Azimuth Distance (km) Brightness Sun altitude
Exits shadow 01:57:00 37° 78° (ENE) 681 3.7 -25.0°
Drops below altitude 10° 01:59:25 10° 68° (ENE) 1,644 6.3 -24.4°
Sets 02:01:55 0° 66° (ENE) 2,699 7.8 -23.9°
